Tracking 19800 objects as of 24-Jul-2019
HD Live streaming from Space Station
objects crossing your sky now

TITAN 3A (TRUSS)

Track TITAN 3A (TRUSS) now!
10-day predictions
TITAN 3A (TRUSS) is classified as:


NORAD ID: 1001
Int'l Code: 1965-008A
Perigee: 2,771.3 km
Apogee: 2,801.2 km
Inclination: 32.2 °
Period: 145.3 minutes
Semi major axis: 9157 km
RCS: 10.9612 m2 (large)
Launch date: February 11, 1965
Source: United States (US)
Launch site: AIR FORCE EASTERN TEST RANGE (AFETR)
aabbcc
Your satellite tracking list
Your tracking list is empty




NASA's NSSDC Master Catalog

Two Line Element Set (TLE):
1  1001U 65008A   19203.84486438 +.00000008 +00000-0 +00000-0 0  9999
2  1001 032.1504 354.0002 0016349 101.0993 259.1344 09.90725664971417
Source of the keplerian elements: AFSPC